Martinsburg, WV

7:44 PM EST on December 05, 2019 (GMT -0500)
Eastern W Va Regional-Shepherd

Weather History for KMRB - October, 2019

Change the Weather History Date:

Friday, October 25, 2019

  Actual Average Record
Temperature  
Mean Temperature 50 °F 51 °F  
Max Temperature 63 °F 63 °F 80 °F (1940)
Min Temperature 37 °F 40 °F 25 °F (1962)
Degree Days  
Heating Degree Days 15 14  
Month to date heating degree days 221 264  
Since 1 July heating degree days 233 355  
Cooling Degree Days 0 0  
Month to date cooling degree days 37 8  
Year to date cooling degree days 1280 893  
Moisture  
Dew Point 43 °F    
Average Humidity 79    
Maximum Humidity 100    
Minimum Humidity 52    
Precipitation  
Precipitation 0.00 in 0.10 in 2.07 in (1967)
Month to date precipitation 2.68 2.46  
Year to date precipitation 37.58 32.27  
Sea Level Pressure  
Sea Level Pressure 30.25 in    
Wind  
Wind Speed 1 mph ()    
Max Wind Speed 7 mph    
Max Gust Speed 7 mph    
Visibility 10.0 miles    
Events      
T = Trace of Precipitation, MM = Missing Value Source: Averaged Metar Reports

Daily Weather History Graph

Daily Weather History Graph

Search for Another Location

Airport or City:

Astronomy

Oct. 25, 2019 Rise Set
Actual Time 7:32 AM EDT 6:19 PM EDT
Civil Twilight 7:04 AM EDT 6:46 PM EDT
Nautical Twilight 6:33 AM EDT 7:18 PM EDT
Astronomical Twilight 6:02 AM EDT 7:49 PM EDT
Moon 4:13 AM EDT (10/25) 5:19 PM EDT (10/25)
Length of Visible Light 11h 42m
Length of Day
10h 47m
Waning Crescent, 9% of the Moon is Illuminated
Oct 25
Waning Crescent
Oct 27
New
Nov 4
First Quarter
Nov 12
Full
Nov 19
Last Quarter

Hourly Weather History & Observations

Time (EDT) Temp. Windchill Dew Point Humidity Pressure Visibility Wind Dir Wind Speed Gust Speed Precip Events Conditions
12:53 AM 39.0 °F 36.8 °F 37.9 °F 96% 30.28 in 10.0 mi SSW 3.5 mph - N/A   Clear
1:53 AM 39.0 °F - 37.0 °F 93% 30.27 in 10.0 mi Calm Calm - N/A   Clear
2:53 AM 39.0 °F - 37.0 °F 93% 30.27 in 10.0 mi Calm Calm - N/A   Clear
3:53 AM 39.0 °F - 37.0 °F 93% 30.27 in 10.0 mi Calm Calm - N/A   Clear
4:53 AM 37.9 °F - 36.0 °F 93% 30.27 in 10.0 mi Calm Calm - N/A   Clear
5:53 AM 39.0 °F - 37.0 °F 93% 30.27 in 10.0 mi Calm Calm - N/A   Clear
6:53 AM 37.9 °F - 36.0 °F 93% 30.28 in 10.0 mi Calm Calm - N/A   Clear
7:53 AM 37.9 °F - 37.0 °F 97% 30.29 in 10.0 mi Calm Calm - N/A   Clear
8:53 AM 42.1 °F - 39.9 °F 92% 30.32 in 10.0 mi Calm Calm - N/A   Clear
9:53 AM 45.0 °F 43.5 °F 41.0 °F 86% 30.32 in 10.0 mi SSE 3.5 mph - N/A   Clear
10:53 AM 48.0 °F - 42.1 °F 80% 30.30 in 10.0 mi Calm Calm - N/A   Clear
11:53 AM 52.0 °F - 42.1 °F 69% 30.28 in 10.0 mi NE 3.5 mph - N/A   Clear
12:53 PM 57.0 °F - 45.0 °F 64% 30.27 in 10.0 mi Calm Calm - N/A   Clear
1:53 PM 59.0 °F - 44.1 °F 58% 30.23 in 10.0 mi Calm Calm - N/A   Clear
2:53 PM 62.1 °F - 44.1 °F 52% 30.21 in 10.0 mi Calm Calm - N/A   Clear
3:53 PM 62.1 °F - 44.1 °F 52% 30.18 in 10.0 mi East 3.5 mph - N/A   Clear
4:53 PM 62.1 °F - 46.0 °F 56% 30.18 in 10.0 mi Calm Calm - N/A   Clear
5:53 PM 59.0 °F - 48.0 °F 67% 30.18 in 10.0 mi Calm Calm - N/A   Clear
6:53 PM 57.0 °F - 46.9 °F 69% 30.19 in 10.0 mi Calm Calm - N/A   Clear
7:53 PM 55.0 °F - 48.0 °F 77% 30.20 in 10.0 mi Calm Calm - N/A   Clear
8:53 PM 55.0 °F - 48.9 °F 80% 30.21 in 10.0 mi Calm Calm - N/A   Overcast
9:53 PM 54.0 °F - 48.9 °F 83% 30.21 in 10.0 mi Calm Calm - N/A   Mostly Cloudy
10:53 PM 53.1 °F - 48.9 °F 86% 30.21 in 10.0 mi Calm Calm - N/A   Clear
11:53 PM 53.1 °F - 48.9 °F 86% 30.20 in 10.0 mi Calm Calm - N/A   Overcast